Weather History for KTBN - April, 2012

Change the Weather History Date:

Sunday, April 29, 2012

  Actual Average Record
Temperature  
Mean Temperature 69 °F -  
Max Temperature 78 °F 69 °F 86 °F (2003)
Min Temperature 60 °F 51 °F 30 °F (2008)
Cooling Degree Days 4    
Growing Degree Days 19 (Base 50)    
Moisture  
Dew Point 64 °F    
Average Humidity 96    
Maximum Humidity 100    
Minimum Humidity 60    
Precipitation  
Precipitation 0.00 in - - ()
Sea Level Pressure  
Sea Level Pressure 29.97 in    
Wind  
Wind Speed 5 mph (ENE)    
Max Wind Speed 9 mph    
Max Gust Speed -    
Visibility 4 miles    
Events Fog , Rain    
Averages and records for this station are not official NWS values.
T = Trace of Precipitation, MM = Missing Value Source: NWS Daily Summary

Daily Weather History Graph

Daily Weather History Graph

Search for Another Location

Airport or City:

Trip Planner

Search our weather history database for the weather conditions in past years. The results will help you decide how hot, cold, wet, or windy it might be!

Date:

Astronomy

Apr. 29, 2012 Rise Set
Actual Time 6:14 AM CDT 7:57 PM CDT
Civil Twilight 5:46 AM CDT 8:25 PM CDT
Nautical Twilight 5:12 AM CDT 8:59 PM CDT
Astronomical Twilight 4:36 AM CDT 9:36 PM CDT
Moon 12:58 PM CDT (4/29) 1:57 AM CDT (4/29)
Length of Visible Light 14h 39m
Length of Day
13h 42m
First Quarter, 53% of the Moon is Illuminated
Apr 29
First Quarter
May 5
Full
May 12
Last Quarter
May 20
New
May 28
First Quarter

Hourly Weather History & Observations

Time (CDT) Temp. Dew Point Humidity Pressure Visibility Wind Dir Wind Speed Gust Speed Precip Events Conditions
12:55 AM 65.1 °F 65.1 °F 100% 29.95 in 10.0 mi ENE 3.5 mph - N/A   Overcast
1:23 AM 64.4 °F 64.4 °F 100% 29.94 in 10.0 mi NNE 3.5 mph - N/A   Overcast
1:29 AM 64.4 °F 64.4 °F 100% 29.94 in 10.0 mi ENE 3.5 mph - N/A   Overcast
1:55 AM 64.4 °F 64.4 °F 100% 29.92 in 10.0 mi ENE 4.6 mph - N/A   Overcast
2:55 AM 64.2 °F 64.2 °F 100% 29.92 in 7.0 mi NE 4.6 mph - N/A   Overcast
3:19 AM 64.4 °F 64.4 °F 100% 29.92 in 6.0 mi ENE 5.8 mph - N/A   Overcast
3:34 AM 64.4 °F 64.4 °F 100% 29.93 in 4.0 mi ENE 4.6 mph - N/A   Overcast
3:48 AM 64.4 °F 64.4 °F 100% 29.94 in 2.5 mi Calm Calm - N/A   Overcast
3:55 AM 63.9 °F 63.9 °F 100% 29.94 in 2.5 mi Calm Calm - N/A   Overcast
4:13 AM 64.4 °F 64.4 °F 100% 29.94 in 1.8 mi ENE 4.6 mph - N/A   Overcast
4:15 AM 64.4 °F 64.4 °F 100% 29.94 in 1.5 mi ENE 3.5 mph - N/A   Overcast
4:18 AM 64.4 °F 64.4 °F 100% 29.94 in 1.2 mi ENE 4.6 mph - N/A   Overcast
4:21 AM 64.4 °F 64.4 °F 100% 29.94 in 1.0 mi East 5.8 mph - N/A   Mist
4:24 AM 64.4 °F 64.4 °F 100% 29.94 in 0.8 mi East 5.8 mph - N/A   Mist
4:26 AM 64.4 °F 64.4 °F 100% 29.94 in 0.8 mi ENE 6.9 mph - N/A   Mist
4:28 AM 64.4 °F 64.4 °F 100% 29.93 in 0.8 mi ENE 6.9 mph - N/A   Mist
4:39 AM 64.4 °F 64.4 °F 100% 29.94 in 0.5 mi NE 3.5 mph - N/A Fog Fog
4:45 AM 64.4 °F 64.4 °F 100% 29.95 in 0.8 mi Calm Calm - N/A   Mist
4:55 AM 63.7 °F 63.7 °F 100% 29.95 in 0.8 mi ENE 4.6 mph - N/A   Mist
5:04 AM 64.4 °F 64.4 °F 100% 29.95 in 0.5 mi Calm Calm - N/A Fog Fog
5:55 AM 63.3 °F 63.3 °F 100% 29.95 in 0.5 mi ENE 8.1 mph - N/A Fog Fog
6:03 AM 62.6 °F 62.6 °F 100% 29.95 in 0.8 mi NE 5.8 mph - N/A   Mist
6:17 AM 62.6 °F 62.6 °F 100% 29.95 in 0.5 mi ENE 4.6 mph - N/A Fog Fog
6:35 AM 62.6 °F 62.6 °F 100% 29.94 in 0.2 mi ENE 6.9 mph - N/A Fog Fog
6:36 AM 62.6 °F 62.6 °F 100% 29.94 in 0.2 mi ENE 6.9 mph - N/A Fog Fog
6:41 AM 62.6 °F 62.6 °F 100% 29.95 in 0.2 mi ENE 6.9 mph - N/A Fog Fog
6:55 AM 63.1 °F 63.1 °F 100% 29.94 in 0.2 mi ENE 8.1 mph - N/A Fog Fog
6:57 AM 62.6 °F 62.6 °F 100% 29.95 in 0.2 mi ENE 6.9 mph - N/A Fog Fog
6:59 AM 62.6 °F 62.6 °F 100% 29.95 in 0.5 mi ENE 6.9 mph - N/A Fog Fog
7:09 AM 62.6 °F 62.6 °F 100% 29.96 in 0.8 mi NE 5.8 mph - N/A   Mist
7:14 AM 62.6 °F 62.6 °F 100% 29.96 in 0.8 mi NE 5.8 mph - N/A   Mist
7:15 AM 62.6 °F 62.6 °F 100% 29.96 in 0.8 mi NE 5.8 mph - N/A   Mist
7:16 AM 62.6 °F 62.6 °F 100% 29.96 in 1.0 mi NE 5.8 mph - N/A   Mist
7:20 AM 62.6 °F 62.6 °F 100% 29.97 in 1.2 mi ENE 4.6 mph - N/A   Overcast
7:22 AM 62.6 °F 62.6 °F 100% 29.96 in 1.5 mi ENE 5.8 mph - N/A   Overcast
7:24 AM 62.6 °F 62.6 °F 100% 29.97 in 1.8 mi ENE 4.6 mph - N/A   Overcast
7:26 AM 62.6 °F 62.6 °F 100% 29.97 in 2.0 mi ENE 4.6 mph - N/A   Overcast
7:43 AM 62.6 °F 62.6 °F 100% 29.96 in 3.0 mi East 4.6 mph - N/A   Overcast
7:47 AM 62.6 °F 62.6 °F 100% 29.96 in 3.0 mi ENE 6.9 mph - N/A   Overcast
7:55 AM 63.1 °F 63.1 °F 100% 29.97 in 4.0 mi NE 4.6 mph - N/A   Overcast
8:14 AM 62.6 °F 62.6 °F 100% 29.97 in 5.0 mi ENE 4.6 mph - N/A   Overcast
8:35 AM 64.4 °F 64.4 °F 100% 30.00 in 6.0 mi Calm Calm - N/A   Mostly Cloudy
8:49 AM 64.4 °F 64.4 °F 100% 30.00 in 6.0 mi Variable 3.5 mph - N/A   Overcast
8:54 AM 64.4 °F 64.4 °F 100% 30.01 in 6.0 mi NW 5.8 mph - N/A   Overcast
8:55 AM 63.7 °F 63.5 °F 99% 30.01 in 6.0 mi NW 5.8 mph - N/A   Overcast
8:57 AM 64.4 °F 64.4 °F 100% 30.01 in 5.0 mi NW 4.6 mph - N/A   Overcast
9:11 AM 64.4 °F 64.4 °F 100% 29.99 in 5.0 mi NNE 3.5 mph - N/A   Overcast
9:12 AM 64.4 °F 64.4 °F 100% 29.99 in 5.0 mi NNE 4.6 mph - N/A   Overcast
9:55 AM 63.7 °F 63.7 °F 100% 30.01 in 4.0 mi North 4.6 mph - N/A   Overcast
10:12 AM 64.4 °F 64.4 °F 100% 30.03 in 2.5 mi NW 9.2 mph - N/A   Overcast
10:13 AM 64.4 °F 64.4 °F 100% 30.03 in 1.5 mi NW 9.2 mph - N/A   Overcast
10:14 AM 62.6 °F 62.6 °F 100% 30.03 in 1.2 mi NNW 9.2 mph - N/A   Overcast
10:15 AM 62.6 °F 62.6 °F 100% 30.03 in 0.8 mi NW 8.1 mph - N/A   Mist
10:17 AM 62.6 °F 62.6 °F 100% 30.03 in 0.5 mi NW 5.8 mph - N/A Fog Fog
10:19 AM 62.6 °F 62.6 °F 100% 30.03 in 0.2 mi Variable 4.6 mph - N/A Fog Fog
10:21 AM 62.6 °F 62.6 °F 100% 30.02 in 0.2 mi NNW 6.9 mph - N/A Fog Fog
10:22 AM 62.6 °F 62.6 °F 100% 30.02 in 0.2 mi NNW 6.9 mph - N/A Fog Fog
10:23 AM 62.6 °F 62.6 °F 100% 30.03 in 0.2 mi NNW 6.9 mph - N/A Fog Fog
10:28 AM 62.6 °F 62.6 °F 100% 30.02 in 0.2 mi North 9.2 mph - N/A Fog Fog
10:37 AM 60.8 °F 60.8 °F 100% 30.03 in 0.2 mi North 6.9 mph - N/A Fog Fog
10:51 AM 60.8 °F 60.8 °F 100% 30.01 in 0.2 mi NE 5.8 mph - N/A Fog Fog
10:54 AM 60.8 °F 60.8 °F 100% 30.01 in 0.2 mi NNE 5.8 mph - N/A Fog Fog
10:55 AM 61.0 °F 61.0 °F 100% 30.01 in 0.2 mi NNE 6.9 mph - N/A Fog Fog
11:07 AM 60.8 °F 60.8 °F 100% 30.01 in 0.2 mi East 8.1 mph - N/A Fog Fog
11:14 AM 60.8 °F 60.8 °F 100% 30.01 in 0.2 mi ENE 8.1 mph - N/A Fog Fog
11:19 AM 62.6 °F 62.6 °F 100% 30.01 in 0.5 mi NE 6.9 mph - N/A Fog Fog
11:27 AM 62.6 °F 62.6 °F 100% 30.02 in 0.8 mi ENE 3.5 mph - N/A   Mist
11:30 AM 62.6 °F 62.6 °F 100% 30.02 in 1.0 mi ENE 6.9 mph - N/A   Mist
11:33 AM 62.6 °F 62.6 °F 100% 30.02 in 1.2 mi ENE 4.6 mph - N/A   Overcast
11:35 AM 62.6 °F 62.6 °F 100% 30.02 in 1.5 mi NE 5.8 mph - N/A   Overcast
11:42 AM 62.6 °F 62.6 °F 100% 30.02 in 2.5 mi Variable 3.5 mph - N/A   Overcast
11:43 AM 62.6 °F 62.6 °F 100% 30.02 in 3.0 mi Variable 3.5 mph - N/A   Overcast
11:55 AM 62.6 °F 62.6 °F 100% 30.03 in 6.0 mi East 4.6 mph - N/A   Overcast
11:59 AM 62.6 °F 62.6 °F 100% 30.03 in 7.0 mi ENE 4.6 mph - N/A   Overcast
12:16 PM 64.4 °F 64.4 °F 100% 30.03 in 10.0 mi East 4.6 mph - N/A   Overcast
12:22 PM 64.4 °F 64.4 °F 100% 30.02 in 10.0 mi East 4.6 mph - N/A   Overcast
12:42 PM 64.4 °F 64.4 °F 100% 30.01 in 10.0 mi ENE 4.6 mph - N/A   Overcast
12:55 PM 65.7 °F 64.2 °F 95% 30.01 in 10.0 mi ESE 3.5 mph - N/A   Overcast
1:01 PM 66.2 °F 64.4 °F 94% 30.01 in 10.0 mi Variable 3.5 mph - N/A   Mostly Cloudy
1:55 PM 71.2 °F 66.2 °F 84% 29.96 in 10.0 mi East 4.6 mph - N/A   Mostly Cloudy
2:49 PM 75.2 °F 68.0 °F 78% 29.94 in 10.0 mi Variable 5.8 mph - N/A   Overcast
2:55 PM 75.2 °F 66.7 °F 75% 29.93 in 10.0 mi SSE 5.8 mph - N/A   Overcast
3:05 PM 75.2 °F 68.0 °F 78% 29.94 in 10.0 mi Calm Calm - N/A   Mostly Cloudy
3:07 PM 73.4 °F 68.0 °F 83% 29.94 in 10.0 mi NW 3.5 mph - N/A   Mostly Cloudy
3:09 PM 73.4 °F 68.0 °F 83% 29.94 in 10.0 mi NNW 4.6 mph - N/A   Mostly Cloudy
3:11 PM 73.4 °F 68.0 °F 83% 29.94 in 10.0 mi NNW 4.6 mph - N/A   Mostly Cloudy
3:12 PM 73.4 °F 68.0 °F 83% 29.94 in 10.0 mi North 4.6 mph - N/A   Mostly Cloudy
3:55 PM 76.1 °F 63.7 °F 65% 29.93 in 10.0 mi Variable 5.8 mph - N/A   Overcast
4:55 PM 78.4 °F 64.4 °F 62% 29.91 in 10.0 mi South 9.2 mph - N/A   Scattered Clouds
5:55 PM 75.7 °F 61.2 °F 60% 29.92 in 10.0 mi Variable 6.9 mph - N/A   Overcast
6:55 PM 74.7 °F 63.1 °F 67% 29.91 in 10.0 mi Variable 5.8 mph - N/A   Overcast
7:55 PM 71.8 °F 63.5 °F 75% 29.92 in 10.0 mi South 5.8 mph - N/A   Mostly Cloudy
8:53 PM 68.0 °F 64.4 °F 88% 29.94 in 10.0 mi South 3.5 mph - N/A   Light Drizzle
8:55 PM 68.7 °F 63.7 °F 84% 29.94 in 10.0 mi South 4.6 mph - 0.00 in   Light Drizzle
9:03 PM 68.0 °F 64.4 °F 88% 29.94 in 10.0 mi South 3.5 mph - N/A   Mostly Cloudy
9:22 PM 68.0 °F 64.4 °F 88% 29.94 in 10.0 mi SSE 5.8 mph - N/A   Light Drizzle
9:31 PM 68.0 °F 64.4 °F 88% 29.94 in 10.0 mi SSE 5.8 mph - N/A   Scattered Clouds
9:55 PM 66.7 °F 63.7 °F 90% 29.93 in 10.0 mi SSE 4.6 mph - 0.00 in   Clear
10:34 PM 66.2 °F 64.4 °F 94% 29.94 in 10.0 mi SSE 5.8 mph - N/A Rain Light Rain
10:43 PM 66.2 °F 64.4 °F 94% 29.94 in 10.0 mi SSE 6.9 mph - N/A   Overcast
10:55 PM 66.4 °F 64.4 °F 93% 29.94 in 10.0 mi SSE 6.9 mph - 0.00 in   Overcast
11:55 PM 66.4 °F 64.0 °F 92% 29.94 in 10.0 mi SSE 5.8 mph - N/A   Mostly Cloudy